Change the Weather History Date:

Friday, April 19, 2013

  Actual Average Record
Temperature  
Mean Temperature 63 °F 50 °F  
Max Temperature 74 °F 62 °F 93 °F (1976)
Min Temperature 52 °F 38 °F 24 °F (2001)
Degree Days  
Heating Degree Days 2 15  
Month to date heating degree days 314 350  
Since 1 July heating degree days 5303 5795  
Cooling Degree Days 0 0  
Month to date cooling degree days 0 0  
Year to date cooling degree days 0 0  
Growing Degree Days 14 (Base 50)    
Moisture  
Dew Point 58 °F    
Average Humidity 79    
Maximum Humidity 93    
Minimum Humidity 64    
Precipitation  
Precipitation 0.39 in 0.12 in 1.32 in (1983)
Month to date precipitation 1.06 2.42  
Year to date precipitation 6.20 11.73  
Sea Level Pressure  
Sea Level Pressure 29.77 in    
Wind  
Wind Speed 9 mph (SSW)    
Max Wind Speed 22 mph    
Max Gust Speed 32 mph    
Visibility 8 miles    
Events Rain , Thunderstorm    
T = Trace of Precipitation, MM = Missing Value Source: NWS Daily Summary

Daily Weather History Graph

Daily Weather History Graph

Search for Another Location

Airport or City:

Trip Planner

Search our weather history database for the weather conditions in past years. The results will help you decide how hot, cold, wet, or windy it might be!

Date:

Astronomy

Apr. 19, 2013 Rise Set
Actual Time 6:09 AM EDT 7:40 PM EDT
Civil Twilight 5:39 AM EDT 8:10 PM EDT
Nautical Twilight 5:04 AM EDT 8:45 PM EDT
Astronomical Twilight 4:27 AM EDT 9:22 PM EDT
Moon 1:17 PM EDT (4/19) 2:28 AM EDT (4/19)
Length of Visible Light 14h 30m
Length of Day
13h 31m
First Quarter, 61% of the Moon is Illuminated
Apr 19
First Quarter
Apr 25
Full
May 2
Last Quarter
May 9
New
May 18
First Quarter

Hourly Weather History & Observations

Time (EDT) Temp. Dew Point Humidity Pressure Visibility Wind Dir Wind Speed Gust Speed Precip Events Conditions
12:53 AM 54.0 °F 48.9 °F 83% 30.06 in 10.0 mi Calm Calm - N/A   Overcast
1:53 AM 54.0 °F 51.1 °F 90% 30.04 in 8.0 mi Calm Calm - N/A   Overcast
2:53 AM 55.0 °F 52.0 °F 89% 30.01 in 7.0 mi Calm Calm - N/A   Overcast
3:53 AM 55.9 °F 53.1 °F 90% 29.96 in 8.0 mi SE 3.5 mph - N/A   Overcast
4:53 AM 57.9 °F 55.0 °F 90% 29.96 in 10.0 mi SW 4.6 mph - N/A   Overcast
5:06 AM 57.2 °F 55.4 °F 94% 29.96 in 7.0 mi WSW 3.5 mph - N/A   Overcast
5:53 AM 57.9 °F 55.9 °F 93% 29.94 in 7.0 mi South 4.6 mph - N/A   Overcast
6:48 AM 59.0 °F 55.4 °F 88% 29.93 in 10.0 mi South 5.8 mph - N/A   Overcast
6:53 AM 59.0 °F 55.9 °F 90% 29.93 in 10.0 mi SSE 6.9 mph - N/A   Overcast
7:53 AM 60.1 °F 57.0 °F 90% 29.93 in 10.0 mi SSE 8.1 mph - N/A   Overcast
8:53 AM 62.1 °F 57.0 °F 84% 29.91 in 10.0 mi South 10.4 mph 20.7 mph N/A   Overcast
9:53 AM 63.0 °F 57.9 °F 84% 29.89 in 10.0 mi South 10.4 mph 17.3 mph N/A   Overcast
10:53 AM 66.9 °F 59.0 °F 76% 29.85 in 10.0 mi South 11.5 mph 20.7 mph N/A   Overcast
11:53 AM 66.9 °F 59.0 °F 76% 29.83 in 10.0 mi South 9.2 mph 19.6 mph N/A   Overcast
12:53 PM 70.0 °F 59.0 °F 68% 29.79 in 10.0 mi South 9.2 mph - N/A   Overcast
1:53 PM 69.1 °F 60.1 °F 73% 29.77 in 10.0 mi South 8.1 mph 17.3 mph 0.00 in   Overcast
2:53 PM 73.0 °F 60.1 °F 64% 29.72 in 10.0 mi South 16.1 mph 23.0 mph N/A   Overcast
3:53 PM 73.9 °F 61.0 °F 64% 29.66 in 10.0 mi SE 13.8 mph 26.5 mph N/A   Mostly Cloudy
4:53 PM 73.0 °F 61.0 °F 66% 29.63 in 10.0 mi SSE 15.0 mph 20.7 mph N/A   Scattered Clouds
5:53 PM 72.0 °F 60.1 °F 66% 29.62 in 10.0 mi SSE 11.5 mph 20.7 mph N/A   Mostly Cloudy
6:53 PM 69.1 °F 60.1 °F 73% 29.61 in 10.0 mi SE 9.2 mph - N/A   Mostly Cloudy
7:53 PM 69.1 °F 60.1 °F 73% 29.59 in 10.0 mi Variable 4.6 mph - N/A   Mostly Cloudy
8:53 PM 70.0 °F 61.0 °F 73% 29.58 in 10.0 mi SSW 8.1 mph 23.0 mph N/A   Overcast
9:46 PM 68.0 °F 60.8 °F 78% 29.66 in 6.0 mi WSW 21.9 mph 28.8 mph 0.01 in Rain , Thunderstorm Light Thunderstorms and Rain
9:53 PM 66.0 °F 61.0 °F 84% 29.64 in 2.5 mi West 17.3 mph 32.2 mph 0.06 in Rain , Thunderstorm Thunderstorms and Rain
9:57 PM 64.4 °F 60.8 °F 88% 29.67 in 3.0 mi SW 15.0 mph 32.2 mph 0.01 in Rain , Thunderstorm Light Rain
10:02 PM 64.4 °F 62.6 °F 94% 29.67 in 2.5 mi SSW 11.5 mph 21.9 mph 0.06 in Rain Heavy Rain
10:07 PM 64.4 °F 62.6 °F 94% 29.66 in 1.8 mi SSW 8.1 mph 19.6 mph 0.08 in Rain , Thunderstorm Rain
10:14 PM 64.4 °F 60.8 °F 88% 29.66 in 2.5 mi SSW 8.1 mph - 0.11 in Rain , Thunderstorm Light Thunderstorms and Rain
10:27 PM 64.4 °F 60.8 °F 88% 29.64 in 5.0 mi South 5.8 mph - 0.14 in Rain , Thunderstorm Light Thunderstorms and Rain
10:48 PM 62.6 °F 60.8 °F 94% 29.66 in 2.5 mi SW 5.8 mph - 0.18 in Rain , Thunderstorm Thunderstorms and Rain
10:53 PM 63.0 °F 61.0 °F 93% 29.65 in 2.0 mi SSW 5.8 mph - 0.20 in Rain , Thunderstorm Rain
11:00 PM 62.6 °F 60.8 °F 94% 29.66 in 3.0 mi SSW 4.6 mph - 0.01 in Rain Light Rain
11:28 PM 62.6 °F 57.2 °F 82% 29.65 in 8.0 mi West 12.7 mph 18.4 mph 0.06 in Rain Light Rain
11:53 PM 59.0 °F 53.1 °F 81% 29.66 in 5.0 mi SW 12.7 mph 19.6 mph 0.09 in Rain Rain